Regional Weather Roundup
Issued by NWS

Home | Current Version | Previous Version | Text Only | Print | Product List | Glossary Off
Versions: 1 2 3 4 5 6 7 8 9 10 11 12 13 14 15 16 17 18 19 20 21 22 23 24 25 26 27 28 29 30 31 32 33 34 35 36 37 38 39 40 41 42 43 44 45 46 47 48 49 50

000
ASUS43 KTOP 010208
RWRKS

WEATHER ROUNDUP FOR KANSAS
NATIONAL WEATHER SERVICE GOODLAND KS
900 PM CDT SAT APR 30 2016

NOTE:  "FAIR" INDICATES FEW OR NO CLOUDS BELOW 12,000 FEET WITH NO
SIGNIFICANT WEATHER AND/OR OBSTRUCTIONS TO VISIBILITY.

KSZ001>006-013>018-027>032-041>047-010300-
NORTHWEST KANSAS

CITY           SKY/WX    TMP DP  RH WIND       PRES   REMARKS
GOODLAND       CLOUDY    35  33  92 N23       29.95R WCI  23
HAYS           CLOUDY    46  34  61 NW10      29.89R
HILL CITY      CLOUDY    43  38  82 NW9       29.91R
RUSSELL        CLOUDY    47  40  76 NW13      29.86R
$$

KSZ061>065-074>080-084>089-010300-
SOUTHWEST KANSAS

CITY           SKY/WX    TMP DP  RH WIND       PRES   REMARKS
DODGE CITY     MOCLDY    44  36  73 NW15      29.93R
ELKHART          N/A     45  30  55 NW14        N/A
GARDEN CITY    CLOUDY    44  33  65 NW18      29.94R
GREAT BEND     CLOUDY    48  37  66 NW14G20   29.89R
LIBERAL        CLEAR     46  32  57 NW14      29.98R
PRATT          CLEAR     45  39  79 W6        29.89R
$$

KSZ066>073-081>083-090>101-010300-
SOUTHEAST KANSAS

CITY           SKY/WX    TMP DP  RH WIND       PRES   REMARKS
CHANUTE        CLEAR     58  47  66 NW7       29.84R
COFFEYVILLE    CLEAR     61  48  62 W5        29.84R
HUTCHINSON     CLEAR     50  42  74 NW7       29.87R
MEDICINE LODGE   N/A     51  41  68 NW8       29.89R
NEWTON         PTCLDY    52  39  62 W5        29.88R
PARSONS        CLEAR     56  49  77 CALM      29.85R
WICHITA INTL   PTCLDY    52  41  66 W6        29.87R
WICHITA JABRA  CLEAR     51  42  71 W6        29.87R
WICHITA MCCONL CLEAR     54  40  58 NW5       29.87R
WINFIELD       CLEAR     52  44  74 NW5       29.88R
$$

KSZ007>012-019>026-033>040-048>060-102>105-010300-
NORTHEAST KANSAS

CITY           SKY/WX    TMP DP  RH WIND       PRES   REMARKS
CONCORDIA      CLOUDY    50  44  80 W8        29.84R
EMPORIA        MOCLDY    55  46  71 W6        29.85R
LAWRENCE       PTCLDY    57  49  74 NW5       29.81R
MANHATTAN      CLOUDY    55  44  66 W5        29.83R
MARYSVILLE     CLOUDY    52  46  82 CALM      29.82R
OLATHE IND     CLEAR     57  48  72 SW6       29.82R
OLATHE EXE     CLEAR     59  46  62 SW3       29.81R
SALINA         CLEAR     50  43  77 W7        29.86R
TOPEKA BILLARD CLEAR     58  46  64 W6        29.82R
TOPEKA FORBES  PTCLDY    56  47  71 W9        29.82R
$$




USA.gov is the U.S. government's official web portal to all federal, state and local government web resources and services.